Cactus Peak, Santa Catalina Island Weather observations

Data are for 10 minute period ending at time listed.
 Day   Time   Solar   Ave.   Ave.  Ave.  Vector    Max.   Stn.    Total
  of    of     Rad.   Air    Rel.  Wind   Wind     Wind   Baro.  Precip.
Year   Day            Temp.  Hum.  Speed  Dir.     Gust   Pres.         
2026   (PST)   W/m2    F      %     mph   deg.      mph    mb.     in.  
------------------------------------------------------------------------
 245   17:10  201.0    64   73.5    17    335.4    22.1    999.0   0.00  
 245   17:20  169.0    64   75.2    17    341.4    22.1    999.0   0.00  
 245   17:30  137.0    63   75.7    18    345.3    23.9    999.0   0.00  
 245   17:40  106.0    63   77.7    18    341.4    24.5    999.0   0.00  
 245   17:50   72.0    63   81.2    18    346.8    23.9    999.0   0.00  
 245   18:00   42.0    62   83.5    18    345.5    23.3    999.0   0.00  
 245   18:10   19.0    62   86.1    18    343.3    22.7    999.0   0.00  
 245   18:20    7.0    61   56.7    18    351.8    21.5    999.0   0.00  
 245   18:30    1.0    61    0.4    18    356.6    22.7    999.0   0.00  
 245   18:40    0.0    61    0.4    17    351.5    22.7    999.0   0.00  
 245   18:50    0.0    61    0.4    17    349.7    22.7    999.0   0.00  
 245   19:00    0.0    61    0.4    17    356.9    22.1    999.0   0.00  
 245   19:10    0.0    61    0.4    16      5.2    22.1    999.0   0.00  
 245   19:20    0.0    60    0.4    16    359.7    20.3    999.0   0.00  
 245   19:30    0.0    60   24.1    16      6.4    21.5    999.0   0.00  
 245   19:40    0.0    60   99.9    15      7.6    20.3    999.0   0.00  
 245   19:50    0.0    60   99.9    14    356.5    19.7    999.0   0.00  
 245   20:00    0.0    60   99.9    14    344.8    19.1    999.0   0.00  
 245   20:10    0.0    60   99.9    14    344.6    18.5    999.0   0.00  
 245   20:20    0.0    60   92.5    16    358.0    20.9    999.0   0.00  
 245   20:30    0.0    61    0.4    16    349.2    19.7    999.0   0.00  
 245   20:40    0.0    60    0.4    14      0.7    17.9    999.0   0.00  
 245   20:50    0.0    60    0.4    14    348.6    18.5    999.0   0.00  
 245   21:00    0.0    61    0.4    14    349.3    17.3    999.0   0.00  
 245   21:10    0.0    61    0.4    13    345.8    17.9    999.0   0.00  
 245   21:20    0.0    61    0.4    11    339.8    14.9    999.0   0.00  
 245   21:30    0.0    61    0.4    11    331.0    14.3    999.0   0.00  
 245   21:40    0.0    60    0.4    10    335.2    13.7    999.0   0.00  
 245   21:50    0.0    60    0.4    10    344.3    13.7    999.0   0.00  
 245   22:00    0.0    60    0.4     8    341.3    11.9    999.0   0.00  
 245   22:10    0.0    60   15.9     8    323.0    10.8    999.0   0.00  
 245   22:20    0.0    60   87.5     8    330.8    10.8    999.0   0.00  
 245   22:30    0.0    60   99.9     9    338.3    11.3    999.0   0.00  
 245   22:40    0.0    60   99.9    10    342.9    13.1    999.0   0.00  
 245   22:50    0.0    60   99.9    11    341.2    13.7    999.0   0.00  
 245   23:00    0.0    60   99.9    10    348.8    14.3    999.0   0.00  
 245   23:10    0.0    60   99.9    10    339.2    11.9    999.0   0.00  
 245   23:20    0.0    60   99.9     9    354.1    14.3    999.0   0.00  
 245   23:30    0.0    60   99.9    10    347.7    13.1    999.0   0.00  
 245   23:40    0.0    60   99.9    10    338.2    12.5    999.0   0.00  
 245   23:50    0.0    60   99.9    10    343.5    11.9    999.0   0.00  
 246    0:00    0.0    61   99.9    12    345.1    16.7    999.0   0.00  
 246    0:10    0.0    61   99.9    13      1.3    15.5    999.0   0.00  
 246    0:20    0.0    61   99.9    12      7.7    16.1    999.0   0.00  
 246    0:30    0.0    61   99.9    11      5.6    14.3    999.0   0.00  
 246    0:40    0.0    61   99.9    10      5.7    14.3    999.0   0.00  
 246    0:50    0.0    61   99.9    10    359.9    13.1    999.0   0.00  
 246    1:00    0.0    61   99.9    11    350.2    14.3    999.0   0.00  
 246    1:10    0.0    61   99.9    11    355.0    14.9    999.0   0.00  
 246    1:20    0.0    61   99.9    12    356.2    14.3    999.0   0.00  
 246    1:30    0.0    61   99.9    11    343.2    13.7    999.0   0.00  
 246    1:40    0.0    61   99.9    11    335.2    14.9    999.0   0.00  
 246    1:50    0.0    61   99.9    11    334.7    13.7    999.0   0.00  
 246    2:00    0.0    60   99.9    11    334.5    13.7    999.0   0.00  
 246    2:10    0.0    60   99.9    11    353.7    13.7    999.0   0.00  
 246    2:20    0.0    60   99.9    11    355.6    14.3    999.0   0.00  
 246    2:30    0.0    60   99.9    11    332.8    14.3    999.0   0.00  
 246    2:40    0.0    60   99.9    10    338.5    13.7    999.0   0.00  
 246    2:50    0.0    61   99.9    11      9.4    16.1    999.0   0.00  
 246    3:00    0.0    60   99.9    10    346.7    13.1    999.0   0.00  
 246    3:10    0.0    60   99.9     8    332.1    10.8    999.0   0.00  
 246    3:20    0.0    60   99.9     8    320.5    10.2    999.0   0.00  
 246    3:30    0.0    60   99.9     8    317.1    10.8    999.0   0.00  
 246    3:40    0.0    60   99.9     8    315.5     9.6    999.0   0.00  
 246    3:50    0.0    59   99.9     8    310.2    10.8    999.0   0.00  
 246    4:00    0.0    59   99.9     8    318.1    11.3    999.0   0.00  
 246    4:10    0.0    59   99.9     8    318.2    11.3    999.0   0.00  
 246    4:20    0.0    59   99.9     8    313.3    11.3    999.0   0.00  
 246    4:30    0.0    58   99.9     8    310.8    11.9    999.0   0.00  
 246    4:40    0.0    58   99.9     9    309.9    12.5    999.0   0.00  
 246    4:50    0.0    58   99.9     9    308.8    13.1    999.0   0.00  
 246    5:00    0.0    58   99.9     9    316.3    11.9    999.0   0.00  
 246    5:10    0.0    58   99.9     8    325.3    11.3    999.0   0.00  
 246    5:20    0.0    59   99.9     8    316.4    10.8    999.0   0.00  
 246    5:30    2.0    59   99.9     8    323.9    10.2    999.0   0.00  
 246    5:40    7.0    58   99.9     8    324.6    10.2    999.0   0.00  
 246    5:50   14.0    58   99.9     8    332.7    10.8    999.0   0.00  
 246    6:00   34.0    58   99.9     9    347.9    11.3    999.0   0.00  
 246    6:10   62.0    59   99.9     8    346.4    10.2    999.0   0.00  
 246    6:20  115.0    59   99.9     8    355.4    10.2    999.0   0.00  
 246    6:30  142.0    60   60.7     6     17.6     8.4    999.0   0.00  
 246    6:40  170.0    61   21.8     6      5.2     7.8    999.0   0.00  
 246    6:50  199.0    62   84.9     6      2.1     7.8    999.0   0.00  
 246    7:00  230.0    63   81.7     4    355.1     6.0    999.0   0.00  
 246    7:10  264.0    64   80.0     6      9.1     7.8    999.0   0.00  
 246    7:20  299.0    63   79.8     5      8.9     7.2    999.0   0.00  
 246    7:30  330.0    64   77.6     5      2.7     7.2    999.0   0.00  
 246    7:40  357.0    65   76.0     4    338.9     6.6    999.0   0.00  
 246    7:50  387.0    65   74.3     5    358.1     8.4    999.0   0.00  
 246    8:00  419.0    66   73.7     5     17.2     8.4    999.0   0.00  
 246    8:10  451.0    66   73.4     4      9.8     7.2    999.0   0.00  
 246    8:20  485.0    67   71.3     2     12.4     6.6    999.0   0.00  
 246    8:30  511.0    68   69.0     3     32.6     9.6    999.0   0.00  
 246    8:40  541.0    68   66.8     4    252.2     6.6    999.0   0.00  
 246    8:50  571.0    68   67.6     5    198.1     9.0    999.0   0.00  
 246    9:00  600.0    67   69.1     6    197.2    10.2    999.0   0.00  
 246    9:10  628.0    67   69.5     6    180.7    11.3    999.0   0.00  
 246    9:20  654.0    68   67.3     5    197.0     8.4    999.0   0.00  
 246    9:30  680.0    68   66.4     6    202.1    11.9    999.0   0.00  
 246    9:40  704.0    68   67.0     6    186.5    11.3    999.0   0.00  
 246    9:50  727.0    68   66.9     8    187.5    11.9    999.0   0.00  
 246   10:00  749.0    68   67.7     8    190.3    13.7    999.0   0.00  
 246   10:10  768.0    67   69.3     8    190.1    13.1    999.0   0.00  
 246   10:20  786.0    68   66.8     8    172.8    11.9    999.0   0.00  
 246   10:30  810.0    68   68.7     9    180.8    14.9    999.0   0.00  
 246   10:40  827.0    68   69.4     8    190.4    13.7    999.0   0.00  
 246   10:50  841.0    67   71.5     8    193.4    14.3    999.0   0.00  
 246   11:00  846.0    68   68.6     8    183.5    13.1    999.0   0.00  
 246   11:10  853.0    67   70.6     8    184.7    13.7    999.0   0.00  
 246   11:20  862.0    67   70.2     9    189.7    14.9    999.0   0.00  
 246   11:30  871.0    67   71.6    10    187.7    14.9    999.0   0.00  
 246   11:40  874.0    67   70.8     8    207.1    13.7    999.0   0.00  
 246   11:50  878.0    68   68.6    10    217.2    16.7    999.0   0.00  
 246   12:00  879.0    69   66.8    10    212.8    14.3    999.0   0.00  
 246   12:10  877.0    68   68.1     9    241.3    15.5    999.0   0.00  
 246   12:20  874.0    67   69.1    10    231.7    16.1    999.0   0.00  
 246   12:30  868.0    68   67.4     9    229.5    16.1    999.0   0.00  
 246   12:40  863.0    68   65.8     9    232.7    13.7    999.0   0.00  
 246   12:50  854.0    68   66.4    11    217.2    16.7    999.0   0.00  
 246   13:00  843.0    68   66.2    10    220.3    14.9    999.0   0.00  
 246   13:10  832.0    68   64.9    11    220.3    16.1    999.0   0.00  
 246   13:20  818.0    67   67.5    10    232.9    16.1    999.0   0.00  
 246   13:30  751.0    67   67.8    10    236.7    14.9    999.0   0.00  
 246   13:40  786.0    68   65.4     9    233.7    13.7    999.0   0.00  
 246   13:50  768.0    67   65.6     9    239.5    14.9    999.0   0.00  
 246   14:00  747.0    67   65.5     8    248.4    13.1    999.0   0.00  
 246   14:10  726.0    67   67.8     9    247.5    13.7    999.0   0.00  
 246   14:20  703.0    67   68.2    10    231.7    14.9    999.0   0.00  
 246   14:30  680.0    66   69.8    10    228.6    13.7    999.0   0.00  
 246   14:40  656.0    67   68.4     9    238.0    13.7    999.0   0.00  
 246   14:50  630.0    66   69.9    10    233.7    14.9    999.0   0.00  
 246   15:00  604.0    66   70.9    10    228.4    14.9    999.0   0.00  
 246   15:10  578.0    66   72.6    11    230.7    15.5    999.0   0.00  
 246   15:20  554.0    65   75.2    10    227.7    14.9    999.0   0.00  
 246   15:30  519.0    64   75.1     7    261.5    11.9    999.0   0.00  
 246   15:40  479.0    65   74.2     6    279.1    13.7    999.0   0.00  
 246   15:50  451.0    65   73.1     6    280.0    10.8    999.0   0.00  
 246   16:00  420.0    65   74.2     7    287.8    11.9    999.0   0.00  
 246   16:10  388.0    66   70.8     8    298.1    12.5    999.0   0.00  
 246   16:20  355.0    65   71.3     9    300.8    13.7    999.0   0.00  
 246   16:30  315.0    64   75.3     9    303.8    13.1    999.0   0.00  
 246   16:40  215.0    64   77.9     8    325.8    13.7    999.0   0.00  
 246   16:50  175.0    63   79.5     9    320.6    13.7    999.0   0.00  
 246   17:00  133.0    63   80.5     7    310.3    13.7    999.0   0.00  

Return to Cactus Peak graphs page.


Western Regional Climate Center,wrcc@dri.edu